[[{"header":{"parameterUnit":"m.s-1","parameterCategory":1,"la1":30.2991,"la2":30.254,"lo1":-89.0895,"lo2":-89.0444,"dy":0.0017,"dx":0.0017,"nx":28,"ny":28,"refTime":"2024-08-17T09:00:00:Z","depth":0,"parameterNumber":2,"parameterNumberName":"U-component_of_WINDS"},"data":[0,0,0,0,0,0,0,0,0,0,0,0,0,0,0,0,0,0,0,0,0,0,0,0,0,0,0,0,0,0,0,0,0,0,0,0,0,0,0,0,0,0,0,0,0,0,0,0,0,0,0,0,0,0,0,0,0,0,4.1997,4.1998,0,4.2131,4.2133,4.2134,4.2125,4.2123,4.2121,4.2119,4.226,4.2265,4.2271,0,0,0,0,0,0,0,0,0,0,0,0,0,4.1733,4.1738,4.1996,4.1998,4.2,4.2131,4.2133,4.2135,4.2126,4.2123,4.2121,4.2119,4.2258,4.2264,4.2271,0,0,0,0,0,0,0,0,0,0,0,0,0,4.1855,4.1739,4.1996,4.2011,4.2014,4.2131,4.2133,4.2135,4.2126,4.2123,4.212,4.2117,4.2256,4.2264,4.2272,4.2384,0,0,4.2298,4.2301,0,0,0,0,0,0,0,0,4.1848,4.1865,4.2007,4.201,4.2013,4.2108,4.2091,4.2219,4.2127,4.2084,4.2119,4.2116,4.2212,4.2224,4.2256,4.239,4.2396,4.2298,4.2304,4.2307,4.231,0,0,0,0,0,0,0,4.184,4.1859,4.205,4.2009,4.2013,4.2011,4.2026,4.2115,4.2163,4.2087,4.2087,4.2103,4.2213,4.2248,4.2259,4.2398,4.2298,4.2306,4.2311,4.2314,4.2631,4.2634,0,0,0,0,0,0,4.1828,4.1852,4.2046,4.2054,4.1922,4.2019,4.2034,4.2081,4.2162,4.2171,4.2105,4.2102,4.2235,4.2249,4.2264,4.24,4.2307,4.2315,4.232,4.2627,4.2631,4.2635,0,0,0,0,0,0,4.1822,4.1845,4.204,4.1953,4.1978,4.2026,4.2079,4.2085,4.212,4.2175,4.2184,4.2132,4.2233,4.2252,4.2354,4.2404,4.2319,4.2326,4.2623,4.2628,4.2633,4.2672,0,0,0,0,0,0,4.1815,4.1843,4.1886,4.1954,4.1982,4.2127,4.2082,4.209,4.2134,4.2131,4.2203,4.2212,4.2232,4.2341,4.2362,4.2414,4.2333,4.2619,4.2626,4.2632,4.2666,4.2678,4.2687,0,0,0,0,0,4.1805,4.1892,4.1888,4.1911,4.2037,4.213,4.2147,4.2168,4.2138,4.2181,4.2217,4.2209,4.2395,4.2352,4.2375,4.2431,4.2616,4.2624,4.2631,4.2662,4.2675,4.2687,0,0,0,0,0,0,4.183,4.1901,4.1898,4.2009,4.2063,4.2129,4.2184,4.2182,4.2247,4.2241,4.2265,4.2281,4.2384,4.2417,4.2367,4.2542,4.2502,4.2514,4.2517,4.2531,4.2541,4.2531,4.234,0,0,0,0,0,4.1848,4.1917,4.1976,4.2069,4.2096,4.2135,4.2177,4.2188,4.2246,4.227,4.2313,4.237,4.2441,4.2487,4.2556,4.2671,4.2686,4.272,4.2731,4.2739,4.275,4.2813,4.2829,4.266,4.266,4.266,0,0,4.1887,4.1934,4.1977,4.2075,4.2119,4.2191,4.2155,4.2233,4.2287,4.2282,4.238,4.2414,4.2479,4.2587,4.2637,4.2619,4.28,4.2749,4.2755,4.2762,4.2823,4.2839,4.2853,4.2665,4.2664,4.2663,0,0,4.1994,4.2036,4.2118,4.2162,4.2228,4.2253,4.2273,4.2338,4.236,4.2459,4.2457,4.2521,4.2643,4.269,4.2729,4.2853,4.2848,4.2874,4.293,4.2991,4.3004,4.3016,4.306,4.3076,4.2885,4.2885,4.2885,0,4.2034,4.2141,4.2161,4.2239,4.2282,4.2279,4.2362,4.2405,4.249,4.252,4.2497,4.265,4.2694,4.2813,4.2843,4.2875,4.2898,4.2867,4.3,4.3012,4.3024,4.3066,4.3083,4.2888,4.2887,4.2887,4.2887,0,4.2187,4.2262,4.232,4.2401,4.2451,4.2531,4.2563,4.2611,4.2618,4.2645,4.2746,4.2798,4.2877,4.2906,4.2914,4.3026,4.3012,4.2995,4.2954,4.3042,4.3083,4.3099,4.2892,4.2891,4.289,4.2889,0,0,4.2315,4.2405,4.2426,4.2463,4.2535,4.2593,4.2673,4.2749,4.279,4.2849,4.2917,4.3019,4.3003,4.3048,4.3061,4.3114,4.3208,4.309,4.3092,4.311,4.3336,4.3349,4.3367,4.3205,4.3208,4.3211,4.333,0,4.243,4.2571,4.259,4.2715,4.2784,4.2782,4.2852,4.2904,4.2932,4.2995,4.3025,4.3098,4.3071,4.3098,4.3151,4.3186,4.3254,4.3177,4.3269,4.3272,4.3254,4.3389,4.3403,4.3513,4.3346,4.3349,4.3351,0,4.2583,4.2645,4.2777,4.2838,4.2868,4.293,4.3001,4.3061,4.312,4.3136,4.3186,4.3192,4.3275,4.323,4.3345,4.3292,4.333,4.3353,4.3358,4.3368,4.3317,4.3403,4.3549,4.3566,4.3376,4.3374,4.3372,0,4.2664,4.278,4.2873,4.2905,4.2979,4.3023,4.3056,4.3111,4.3156,4.3218,4.3247,4.3318,4.3357,4.3412,4.3437,4.3402,4.355,4.3508,4.3567,4.3566,4.3599,4.3597,4.3754,4.3623,4.3623,4.3622,4.3622,0,4.279,4.2871,4.291,4.2968,4.3058,4.3079,4.3168,4.32,4.3249,4.3313,4.3316,4.3376,4.3405,4.3469,4.3489,4.3581,4.3599,4.3615,4.3619,4.3615,4.3613,4.3641,4.3634,4.3627,4.3626,4.3625,4.3624,0,4.2896,4.2925,4.3027,4.3089,4.3106,4.317,4.3223,4.3279,4.3305,4.3386,4.3406,4.3448,4.3524,4.3554,4.3648,4.3661,4.3767,4.3765,4.3747,4.3749,4.3806,4.38,4.3988,4.4013,4.3864,4.3866,4.3867,0,4.2976,4.3037,4.3105,4.3147,4.3182,4.325,4.3295,4.3318,4.3364,4.3435,4.3483,4.3558,4.362,4.3742,4.3781,4.3852,4.3852,4.3913,4.3863,4.3857,4.3854,4.385,4.3856,4.3923,4.3924,4.3925,4.3926,0,4.3113,4.3124,4.3188,4.3258,4.3311,4.3366,4.3421,4.3456,4.3486,4.3539,4.3616,4.3664,4.3758,4.3833,4.3906,4.3941,4.3939,4.3941,4.3959,4.3956,4.3943,4.3951,4.3773,4.3937,4.3936,4.3935,4.3935,4.3934,4.3209,4.3263,4.3319,4.339,4.3433,4.3483,4.3539,4.3572,4.3636,4.3714,4.3724,4.3806,4.3863,4.3961,4.3998,4.4063,4.4048,4.4073,4.4079,4.4086,4.4089,4.3931,4.4077,4.4077,4.4076,4.4076,4.4076,0,4.3347,4.3382,4.3447,4.3523,4.3578,4.357,4.363,4.3677,4.375,4.3802,4.3862,4.3951,4.4023,4.4067,4.414,4.4184,4.4185,4.4203,4.42,4.4208,4.4099,4.4077,4.4201,4.4201,4.42,4.42,4.42,4.42,4.3426,4.3517,4.3535,4.3648,4.3683,4.3763,4.3798,4.3844,4.3886,4.3984,4.4044,4.4072,4.4121,4.4197,4.4264,4.4275,4.4302,4.4321,4.4331,4.4229,4.4216,4.4203,4.4183,4.4326,4.4326,4.4434,4.4435,4.4435]},{"header":{"parameterUnit":"m.s-1","parameterCategory":1,"la1":30.2991,"la2":30.254,"lo1":-89.0895,"lo2":-89.0444,"dy":0.0017,"dx":0.0017,"nx":28,"ny":28,"refTime":"2024-08-17T09:00:00:Z","depth":0,"parameterNumber":3,"parameterNumberName":"V-component_of_WINDS"},"data":[0,0,0,0,0,0,0,0,0,0,0,0,0,0,0,0,0,0,0,0,0,0,0,0,0,0,0,0,0,0,0,0,0,0,0,0,0,0,0,0,0,0,0,0,0,0,0,0,0,0,0,0,0,0,0,0,0,0,-0.5554,-0.5554,0,-0.5574,-0.5574,-0.5574,-0.5592,-0.5592,-0.5592,-0.5592,-0.5613,-0.5613,-0.5613,0,0,0,0,0,0,0,0,0,0,0,0,0,-0.5533,-0.5533,-0.5554,-0.5554,-0.5555,-0.5574,-0.5574,-0.5574,-0.5592,-0.5592,-0.5592,-0.5592,-0.5613,-0.5613,-0.5613,0,0,0,0,0,0,0,0,0,0,0,0,0,-0.5546,-0.5533,-0.5554,-0.5565,-0.5567,-0.5574,-0.5574,-0.5574,-0.5592,-0.5592,-0.5592,-0.5592,-0.5612,-0.5613,-0.5613,-0.5611,0,0,-0.5615,-0.5615,0,0,0,0,0,0,0,0,-0.5546,-0.5547,-0.5564,-0.5565,-0.5566,-0.5581,-0.5574,-0.5587,-0.5591,-0.5582,-0.5592,-0.5593,-0.5602,-0.5603,-0.5606,-0.5612,-0.5613,-0.5615,-0.5615,-0.5616,-0.5616,0,0,0,0,0,0,0,-0.5545,-0.5546,-0.5562,-0.5564,-0.5565,-0.557,-0.5572,-0.5577,-0.559,-0.5583,-0.5584,-0.5586,-0.5603,-0.5606,-0.5607,-0.5613,-0.5615,-0.5616,-0.5616,-0.5616,-0.5619,-0.5619,0,0,0,0,0,0,-0.5542,-0.5545,-0.5561,-0.5563,-0.5556,-0.557,-0.5573,-0.5576,-0.559,-0.5593,-0.5586,-0.5587,-0.5605,-0.5606,-0.5608,-0.5607,-0.5616,-0.5616,-0.5616,-0.562,-0.5619,-0.5619,0,0,0,0,0,0,-0.5541,-0.5543,-0.556,-0.5554,-0.5557,-0.557,-0.5573,-0.5576,-0.5579,-0.5592,-0.5595,-0.5587,-0.5605,-0.5607,-0.561,-0.5607,-0.5616,-0.5617,-0.562,-0.5619,-0.5619,-0.5604,0,0,0,0,0,0,-0.5541,-0.5543,-0.5541,-0.5554,-0.5557,-0.5562,-0.5573,-0.5576,-0.558,-0.5581,-0.5594,-0.5596,-0.5605,-0.5609,-0.5611,-0.5608,-0.5617,-0.562,-0.562,-0.5619,-0.5604,-0.5603,-0.5601,0,0,0,0,0,-0.554,-0.5536,-0.5541,-0.5543,-0.5556,-0.5562,-0.5564,-0.5574,-0.558,-0.5579,-0.5588,-0.5596,-0.5608,-0.561,-0.5611,-0.5609,-0.562,-0.562,-0.5619,-0.5605,-0.5603,-0.5601,0,0,0,0,0,0,-0.5522,-0.5538,-0.5544,-0.5544,-0.5551,-0.5565,-0.5564,-0.5572,-0.5578,-0.5579,-0.5592,-0.5595,-0.5597,-0.5604,-0.5605,-0.5608,-0.5615,-0.5615,-0.5604,-0.5602,-0.56,-0.5599,-0.5618,0,0,0,0,0,-0.5518,-0.5521,-0.5535,-0.5534,-0.5537,-0.555,-0.5553,-0.5561,-0.5569,-0.5573,-0.5582,-0.559,-0.5596,-0.5599,-0.5605,-0.5606,-0.5609,-0.5605,-0.5604,-0.5602,-0.5602,-0.5604,-0.5603,-0.5617,-0.5617,-0.5617,0,0,-0.5509,-0.5519,-0.552,-0.553,-0.5537,-0.5541,-0.5552,-0.5556,-0.5559,-0.5573,-0.5577,-0.5584,-0.5595,-0.5597,-0.5598,-0.5602,-0.5599,-0.5602,-0.56,-0.5601,-0.5603,-0.5602,-0.5601,-0.5617,-0.5617,-0.5617,0,0,-0.5496,-0.5503,-0.5503,-0.5511,-0.5521,-0.553,-0.553,-0.5543,-0.5548,-0.5553,-0.5564,-0.5569,-0.5578,-0.5585,-0.559,-0.5582,-0.559,-0.5584,-0.5576,-0.5578,-0.5576,-0.5575,-0.5573,-0.5572,-0.5584,-0.5584,-0.5584,0,-0.5484,-0.549,-0.5503,-0.5506,-0.5511,-0.5524,-0.5525,-0.5532,-0.5544,-0.5547,-0.5551,-0.5565,-0.5573,-0.5577,-0.5576,-0.5579,-0.558,-0.5582,-0.5576,-0.5575,-0.5574,-0.5572,-0.5571,-0.5583,-0.5583,-0.5583,-0.5583,0,-0.5476,-0.548,-0.5479,-0.5491,-0.5496,-0.5498,-0.5511,-0.5515,-0.5523,-0.5532,-0.5537,-0.5547,-0.5556,-0.5558,-0.5565,-0.5564,-0.5567,-0.5573,-0.558,-0.5572,-0.557,-0.557,-0.5582,-0.5582,-0.5582,-0.5582,0,0,-0.545,-0.547,-0.547,-0.5476,-0.549,-0.5494,-0.5497,-0.5506,-0.5509,-0.5518,-0.5522,-0.553,-0.5537,-0.5543,-0.5552,-0.5553,-0.5548,-0.556,-0.556,-0.5558,-0.5549,-0.5544,-0.5542,-0.5554,-0.5553,-0.5553,-0.5548,0,-0.544,-0.5446,-0.5458,-0.5461,-0.5466,-0.548,-0.5483,-0.5493,-0.5501,-0.5507,-0.5517,-0.5523,-0.5531,-0.5535,-0.5538,-0.5548,-0.5546,-0.5548,-0.5558,-0.5558,-0.5554,-0.5542,-0.5536,-0.553,-0.5547,-0.5547,-0.5547,0,-0.5427,-0.5436,-0.5439,-0.5454,-0.5457,-0.5459,-0.547,-0.5475,-0.5486,-0.5493,-0.55,-0.551,-0.5516,-0.5523,-0.5531,-0.5532,-0.5537,-0.5543,-0.5543,-0.5544,-0.5552,-0.5543,-0.5528,-0.5528,-0.5546,-0.5546,-0.5546,0,-0.5409,-0.5421,-0.5425,-0.543,-0.5448,-0.5449,-0.5457,-0.5469,-0.5474,-0.5483,-0.5487,-0.5497,-0.5502,-0.551,-0.5523,-0.5527,-0.553,-0.5538,-0.5536,-0.5536,-0.5536,-0.5536,-0.5522,-0.5539,-0.5539,-0.5539,-0.5539,0,-0.5396,-0.5397,-0.5417,-0.542,-0.5423,-0.5437,-0.544,-0.5449,-0.546,-0.5465,-0.5478,-0.5483,-0.5499,-0.5506,-0.5517,-0.5523,-0.5525,-0.5531,-0.5533,-0.5529,-0.5529,-0.5533,-0.5533,-0.5539,-0.5539,-0.5539,-0.5539,0,-0.5375,-0.5389,-0.5394,-0.5411,-0.5415,-0.5417,-0.5431,-0.5435,-0.5445,-0.5452,-0.5454,-0.547,-0.5479,-0.5493,-0.5506,-0.5513,-0.5518,-0.5522,-0.5514,-0.5515,-0.5513,-0.5513,-0.5502,-0.5501,-0.5518,-0.5518,-0.5517,0,-0.5366,-0.5368,-0.5385,-0.5389,-0.5397,-0.5403,-0.5409,-0.5425,-0.543,-0.5445,-0.5447,-0.5457,-0.5466,-0.548,-0.5493,-0.5504,-0.5509,-0.5504,-0.551,-0.5507,-0.5509,-0.5509,-0.551,-0.5502,-0.5502,-0.5502,-0.5502,0,-0.5348,-0.5355,-0.5362,-0.5373,-0.538,-0.5389,-0.5399,-0.5402,-0.542,-0.5426,-0.5435,-0.5442,-0.5456,-0.5467,-0.5479,-0.5488,-0.5498,-0.55,-0.55,-0.5496,-0.5491,-0.5494,-0.551,-0.55,-0.55,-0.55,-0.55,-0.55,-0.5333,-0.5336,-0.5349,-0.5357,-0.5367,-0.5376,-0.5381,-0.5392,-0.54,-0.5413,-0.5422,-0.5431,-0.5445,-0.5463,-0.5471,-0.548,-0.5484,-0.5484,-0.5484,-0.5484,-0.5483,-0.549,-0.5482,-0.5482,-0.5482,-0.5482,-0.5482,0,-0.5316,-0.5325,-0.5333,-0.5347,-0.5355,-0.5364,-0.5376,-0.5381,-0.539,-0.5401,-0.541,-0.5422,-0.5433,-0.5448,-0.546,-0.5464,-0.5469,-0.5466,-0.5466,-0.5468,-0.5478,-0.5477,-0.5462,-0.5462,-0.5462,-0.5462,-0.5462,-0.5462,-0.5308,-0.5313,-0.5322,-0.5333,-0.5343,-0.5353,-0.5359,-0.5368,-0.5378,-0.539,-0.5399,-0.5409,-0.5423,-0.5436,-0.5447,-0.5451,-0.5455,-0.5451,-0.5457,-0.5466,-0.5467,-0.5469,-0.5468,-0.5452,-0.5452,-0.5447,-0.5447,-0.5447]}]]